Location: Newark
(42.9858°N, 0.6717°E)
Time: 00:47:21
(UTC+00:00)

deb Explorer IX - Visible Passes

Search period start: 13 November 2019 00:00
Search period end: 23 November 2019 00:00
Orbit: 546 x 1105 km, 38.8° (Epoch: 12 November)

Date Brightness Start Highest point End Pass type
(mag) Time Alt. Az. Time Alt. Az. Time Alt. Az.
13 Nov ? 04:29:38 43° S 04:29:59 43° S 04:34:15 10° E visible
13 Nov ? 06:12:03 10° W 06:16:33 48° S 06:20:36 10° ESE visible
14 Nov ? 04:08:59 40° SE 04:08:59 40° SE 04:12:29 10° E visible
14 Nov ? 05:50:22 12° W 05:54:41 48° S 05:58:48 10° ESE visible
15 Nov ? 03:48:17 29° ESE 03:48:17 29° ESE 03:50:43 10° E visible
15 Nov ? 05:29:40 20° WSW 05:32:48 49° S 05:37:02 10° ESE visible
16 Nov ? 03:27:34 19° ESE 03:27:34 19° ESE 03:28:56 10° E visible
16 Nov ? 05:08:56 31° WSW 05:10:56 49° S 05:15:15 10° ESE visible
17 Nov ? 03:06:50 12° E 03:06:50 12° E 03:07:09 10° E visible
17 Nov ? 04:48:13 45° SW 04:49:02 50° S 04:53:28 10° ESE visible
18 Nov ? 04:27:29 50° S 04:27:29 50° S 04:31:40 10° ESE visible
18 Nov ? 06:09:29 10° W 06:13:27 24° SSW 06:17:01 10° SSE visible
19 Nov ? 04:06:45 37° SE 04:06:45 37° SE 04:09:53 10° ESE visible
19 Nov ? 05:48:08 13° WSW 05:51:32 25° SSW 05:55:13 10° SSE visible
20 Nov ? 03:46:03 25° SE 03:46:03 25° SE 03:48:05 10° ESE visible
20 Nov ? 05:27:26 19° WSW 05:29:37 25° SSW 05:33:24 10° SSE visible
21 Nov ? 03:25:23 15° ESE 03:25:23 15° ESE 03:26:16 10° ESE visible
21 Nov ? 05:06:45 24° SW 05:07:40 26° SSW 05:11:36 10° SSE visible
22 Nov ? 04:46:07 26° SSW 04:46:07 26° SSW 04:49:47 10° SSE visible
